Flag for Germany Weather past 2 weeks in Apolda, Thuringia, Germany

Now
50 °F

Passing clouds.


Feels Like: 49 °F
Forecast: 50 / 64 °F
Wind: 3 mph from Southwest

Location: Erfurt-Bindersleben

Current Time: Sep 4, 2015 at 2:14:57 AM

Latest Report: Sep 4, 2015 at 1:00 AM


Visibility: 25 mi

Pressure: 29.98 "Hg

Humidity: 95%

Dew point: 49 °F

Location of ApoldaLocation

Historic Weather in Apolda — Graph

°F

Apolda temperature yesterday

Maximum temperature yesterday: 62 °F (at 6:00 PM)
Minimum temperature yesterday: 51 °F (at 4:00 AM)
Average temperature yesterday: 57 °F

Past Weeks' High & Low Weather Summary

 TemperatureHumidityPressure
High92 °F (Aug 31, 4:00 PM)100% (Aug 21, 3:00 AM)30.33 "Hg (Aug 21, 3:00 AM)
Low48 °F (Aug 21, 7:00 AM)31% (Aug 30, 5:00 PM)29.67 "Hg (Aug 24, 6:00 PM)
Average65 °F70%30.00 "Hg
* Reported Aug 20 1:00 AM — Sep 4 1:00 AM, Apolda, Weather by CustomWeather, © 2015

Note: Actual official high and low records may vary slightly from our data, if they occured in-between our weather recording intervals... More about our weather records

Advertising

Apolda weather history for previous 24 hours

 ConditionsComfort  
Time TempWeatherWind HumidityBarometerVisibility
1:00 AM
Fri, Sep 4
50 °FPassing clouds.3 mph95%29.98 "Hg25 mi
11:00 PM
Thu, Sep 3
52 °FPassing clouds.2 mph86%29.97 "Hg25 mi
10:00 PM56 °FPassing clouds.1 mph78%29.96 "Hg31 mi
9:00 PM57 °FPassing clouds.1 mph74%29.95 "Hg37 mi
8:00 PM60 °FPassing clouds.1 mph71%29.93 "Hg37 mi
7:00 PM62 °FOvercast.3 mph68%29.91 "Hg31 mi
6:00 PM62 °FPartly sunny.3 mph65%29.91 "Hg25 mi
5:00 PM61 °FOvercast.2 mph76%29.92 "Hg22 mi
4:00 PM60 °FSprinkles. Overcast.2 mph86%29.93 "Hg25 mi
3:00 PM62 °FOvercast.2 mph75%29.93 "Hg25 mi
2:00 PM61 °FSprinkles. Overcast.2 mph75%29.93 "Hg31 mi
1:00 PM61 °FPartly sunny.2 mph71%29.94 "Hg31 mi
12:00 PM60 °FPartly sunny.2 mph73%29.96 "Hg31 mi
11:00 AM58 °FPartly sunny.2 mph78%29.96 "Hg31 mi
10:00 AM56 °FSprinkles. Partly sunny.1 mph81%29.97 "Hg31 mi
9:00 AM54 °FOvercast.2 mph85%29.97 "Hg31 mi
8:00 AM54 °FOvercast.1 mph85%29.96 "Hg31 mi
7:00 AM53 °FSprinkles. Overcast.6 mph87%29.97 "Hg28 mi
5:00 AM53 °FOvercast.3 mph85%29.96 "Hg25 mi
4:00 AM51 °FCool.2 mph88%29.97 "HgN/A
3:00 AM53 °FPassing clouds.3 mph83%29.98 "Hg31 mi
2:00 AM53 °FPassing clouds.2 mph80%29.99 "Hg37 mi
Weather by CustomWeather, © 2015

See weather overviewHow to use our weather pages